Regional Weather Roundup
Issued by NWS Goodland, KS

Home | Current Version | Previous Version | Text Only | Print | Product List | Glossary Off
Versions: 1 2 3 4 5 6 7 8 9 10 11 12 13 14 15 16 17 18 19 20 21 22 23 24 25 26 27 28 29 30 31 32 33 34 35 36 37 38 39 40 41 42 43 44 45 46 47 48 49 50

000
ASUS43 KGLD 080559
RWRGLD

GOODLAND FORECAST AREA HOURLY WEATHER ROUNDUP
NATIONAL WEATHER SERVICE GOODLAND KS
1100 PM MST SUN FEB 07 2016

...OFFICIAL OBSERVATIONS...

CITY           SKY/WX    TMP DP  RH WIND       PRES   REMARKS
GOODLAND KS    PTCLDY    27  12  53 NW23G31   30.32S WCI  12
HILL CITY KS   CLEAR     30  18  60 NW16      30.28R WCI  19
IMPERIAL NEB   CLEAR     27  13  55 NW20G30   30.29S WCI  13
MCCOOK NEB     CLEAR     28  16  60 NW14      30.28R WCI  17
AKRON CO       CLOUDY    26  12  55 NW25G40   30.35F WCI  11
BURLINGTON CO  CLOUDY    27  15  61 NW21      30.36R WCI  13
LIMON CO       CLOUDY    13   8  81 W5        30.38S
$$

...UNOFFICIAL OBSERVATIONS...

CITY           SKY/WX    TMP DP  RH WIND       PRES   REMARKS
COLBY KS       CLEAR     28  18  64 NW24G30   30.31S WCI  14
GOVE KS          N/A     30  32 100 MISG        N/A
LENORA KS        N/A     28  32 100 MISG        N/A
NORTON KS      CLEAR     28  16  59 W21G26    30.25R WCI  15
KIT CARSON CO    N/A     22  13  69 MISG        N/A
YUMA CO          N/A     27  14  57 NW20G29     N/A  WCI  14
$$



USA.gov is the U.S. government's official web portal to all federal, state and local government web resources and services.